Wind_Speed
6 6 5 5 6 6 6 7 7 7 7 7 6 7 7 7 7 7 7 6 6 5 6 6 5 5 5 5 6 6 5 5 5 5 5 5 5 5 5 4 4 4 4 3 3 3 3 3 3
6 6 5 5 6 6 6 6 7 7 7 7 6 7 7 7 7 7 6 7 7 6 6 6 5 5 5 5 5 5 5 4 4 5 5 4 4 3 3 3 3 3 3 3 3 3 3 3 3
6 6 6 6 6 6 6 6 7 7 7 7 6 6 7 7 7 7 7 7 7 7 6 5 6 5 5 5 4 4 4 4 4 4 4 4 3 3 3 3 2 2 2 2 2 3 3 3 3
6 6 6 6 6 6 7 6 7 7 8 7 7 7 7 7 7 7 7 7 7 7 6 5 5 5 5 4 4 4 4 4 4 3 3 3 2 2 2 3 2 2 1 2 2 2 3 3 3
6 6 6 6 6 6 7 7 7 7 7 7 7 8 7 7 7 7 7 7 7 7 7 6 6 6 5 4 3 3 4 3 3 3 3 2 2 1 1 1 2 1 2 2 3 3 3 3 3
6 6 6 6 6 6 7 8 8 8 8 8 8 8 7 8 8 9 9 8 7 7 7 7 7 6 5 4 3 2 2 3 2 2 2 2 1 1 0 0 1 1 2 2 3 3 4 4 4
6 6 6 6 6 7 7 8 8 7 7 8 8 8 8 9 9 9 10 9 8 8 8 7 7 7 6 5 4 3 3 3 3 2 2 2 1 1 1 1 2 2 2 3 3 4 4 5 5
6 6 5 6 6 7 7 8 8 8 8 8 8 8 9 10 10 10 10 9 9 9 9 9 8 8 7 6 5 5 4 4 4 3 2 2 2 1 1 1 2 3 3 3 4 4 5 5 5
7 6 5 6 6 7 7 7 7 8 8 8 8 8 9 10 10 10 10 10 10 9 9 9 9 9 8 7 6 6 5 5 4 4 3 3 3 2 1 1 2 3 3 4 4 5 5 5 5
7 7 7 7 7 7 7 7 8 8 8 8 8 8 8 10 10 10 10 11 10 10 10 10 9 9 9 8 8 6 5 5 5 4 4 3 3 2 2 2 2 3 3 3 4 4 5 5 5
7 7 7 7 7 8 8 8 8 7 7 8 8 8 8 9 10 11 11 11 11 10 10 10 9 9 9 9 8 6 5 5 5 5 4 4 3 3 3 3 3 4 4 4 4 4 5 6 6
8 7 7 7 7 8 8 8 8 8 8 8 8 8 9 9 10 11 11 11 11 10 10 11 9 9 9 9 9 7 6 5 5 5 5 4 4 3 3 3 3 4 4 4 4 5 5 6 6
8 8 7 7 7 7 8 8 8 8 8 8 8 8 9 9 9 10 10 10 11 11 11 10 10 8 9 8 8 7 6 6 6 5 5 4 4 4 3 3 4 4 4 4 4 5 6 6 6
8 8 8 7 7 7 8 8 8 8 8 8 8 8 8 9 9 9 9 10 10 10 11 11 11 9 9 9 9 8 7 7 6 5 5 5 4 4 4 4 4 4 4 5 5 6 6 6 7
8 8 8 8 8 7 7 8 8 8 8 8 9 9 9 9 9 9 9 10 10 10 10 11 11 11 10 9 10 9 9 8 7 6 6 5 5 4 4 4 4 4 4 5 5 6 6 6 7
8 8 8 8 8 7 7 7 8 8 8 9 9 9 9 9 9 10 10 10 10 10 10 11 11 11 11 10 10 10 9 8 7 7 6 6 5 5 4 4 4 5 5 5 5 6 6 7 7
9 9 8 8 8 8 8 7 8 8 8 8 9 9 9 9 9 10 10 10 10 10 10 11 11 10 10 10 10 10 10 9 8 7 6 6 6 5 5 5 5 5 5 5 5 6 6 7 7
10 10 9 9 9 8 8 9 8 9 9 9 9 9 10 10 9 10 10 9 9 10 11 11 11 11 11 11 10 10 10 9 8 7 7 7 6 6 6 5 5 5 5 5 6 6 7 7 7
10 10 10 10 9 9 9 9 9 9 9 10 9 9 10 10 10 10 10 9 9 10 10 11 10 10 11 10 10 10 10 9 8 7 7 7 6 6 6 5 5 5 5 6 6 7 7 7 7
10 10 10 10 9 10 9 10 10 10 10 10 10 10 10 11 11 11 10 10 10 10 10 10 10 11 11 10 10 10 10 9 8 7 8 7 6 6 6 5 5 5 5 6 6 6 7 7 7
10 10 10 10 10 9 9 10 10 10 10 10 10 11 11 11 11 11 11 10 10 11 11 10 10 10 10 10 11 10 10 9 8 7 7 7 6 6 6 6 6 6 6 6 6 6 7 7 7
10 10 10 10 10 10 11 10 11 11 10 10 10 11 11 11 11 11 11 11 11 11 11 11 11 11 11 11 11 10 10 9 8 7 7 7 6 6 7 7 7 7 7 7 7 6 6 7 7
11 11 10 10 10 10 10 10 10 11 11 10 11 11 11 11 11 11 11 11 11 11 11 11 11 11 11 11 10 10 10 9 9 8 8 7 7 7 7 7 7 7 7 7 6 6 6 7 7
12 11 11 10 10 11 9 10 9 11 10 11 11 11 11 11 11 11 11 11 11 11 11 11 12 12 11 11 11 10 10 10 10 10 9 8 8 8 8 7 7 7 7 6 6 6 6 7 7
13 12 12 12 12 11 10 10 9 10 11 11 11 11 11 11 11 11 11 12 11 11 11 12 12 12 12 11 11 11 11 11 11 11 10 9 9 8 8 7 7 7 7 7 7 7 7 8 8
14 14 14 14 14 12 11 10 9 10 10 11 11 10 10 11 11 11 12 12 12 12 12 12 12 12 12 12 12 12 12 12 12 11 11 10 10 9 8 8 8 8 7 8 8 8 9 9 9
15 15 15 15 14 13 12 10 9 10 10 10 11 11 11 11 11 11 12 12 12 12 12 11 11 12 13 13 13 14 13 12 12 11 11 10 10 9 9 9 9 9 8 9 9 9 9 9 9
16 16 16 16 15 14 12 11 10 10 10 10 10 10 11 10 11 11 11 11 11 12 12 11 12 12 13 13 13 13 13 12 11 11 11 11 11 10 10 9 9 10 10 10 10 10 10 10 10
17 17 17 17 16 15 13 12 11 11 10 10 10 10 10 10 10 10 10 10 11 11 12 12 12 12 12 12 12 11 11 11 11 11 11 11 11 11 10 10 10 10 10 10 10 10 10 11 12
19 19 19 18 18 16 15 13 12 12 11 11 11 11 11 11 11 11 11 11 11 11 11 12 11 11 12 11 11 11 11 11 11 11 11 11 11 11 11 11 11 11 11 11 11 12 12 12 12
Wind_Direction
191 193 187 182 181 185 186 184 187 185 182 184 180 181 183 188 187 183 176 176 170 159 144 142 142 140 132 128 131 128 123 116 110 108 106 103 101 102 107 103 93 85 80 70 57 56 53 45 41
189 191 189 185 187 195 194 185 184 187 188 185 185 186 187 189 193 191 179 175 172 164 158 155 152 149 150 141 135 129 125 118 115 110 106 100 97 94 95 96 95 84 72 60 46 40 36 28 22
187 191 190 190 194 198 193 190 187 190 190 191 194 194 194 195 197 199 189 179 178 172 169 166 156 152 161 160 152 141 133 128 125 120 111 104 100 98 98 91 91 76 52 40 26 18 13 6 1
192 193 193 196 201 203 197 192 190 200 200 199 202 201 202 199 203 202 196 186 184 184 182 179 174 159 155 152 141 144 142 140 137 128 123 117 112 101 102 79 72 49 18 4 359 357 354 353 347
196 196 199 205 207 207 206 205 204 206 204 206 208 211 207 208 206 202 198 191 190 187 189 186 185 179 169 166 157 142 140 142 145 142 137 130 118 109 107 63 41 18 354 344 343 342 335 330 327
198 198 201 204 208 209 208 206 208 212 210 213 216 218 213 210 204 200 198 196 193 189 190 195 193 189 187 187 184 183 167 168 171 165 159 153 151 134 158 340 351 342 339 337 340 338 330 322 317
198 199 204 208 211 210 208 210 209 210 213 216 217 219 214 204 201 203 201 197 196 198 199 203 204 200 199 200 206 211 206 200 195 190 185 185 190 205 255 289 304 302 316 322 324 321 318 314 312
204 207 208 211 215 214 211 210 213 213 217 219 219 217 208 202 200 201 201 200 201 201 201 204 208 205 206 212 217 221 217 212 213 211 202 201 203 210 246 289 307 294 303 312 314 316 314 314 312
209 212 217 218 217 215 212 215 216 216 218 220 220 216 211 208 205 206 208 207 206 206 206 210 214 215 217 220 222 220 214 215 223 222 219 215 218 226 256 305 311 305 305 309 313 314 316 318 316
213 214 221 225 224 220 214 214 218 221 219 218 218 220 218 216 210 210 213 215 214 213 215 214 217 218 219 222 223 220 221 218 223 226 222 223 226 238 267 299 313 308 304 307 315 317 319 320 319
217 220 223 227 224 222 218 218 221 224 225 223 222 224 222 223 220 218 219 217 218 219 221 221 223 222 222 223 226 231 232 224 221 225 228 233 236 250 272 285 303 306 305 307 313 317 321 322 320
218 222 225 230 228 222 219 220 224 226 228 228 228 230 230 231 227 223 223 223 223 221 222 226 228 227 226 228 230 232 233 233 225 224 230 237 245 257 281 290 300 306 308 308 311 321 320 319 317
218 221 225 228 229 223 223 227 230 231 232 230 230 232 237 235 229 227 229 227 222 222 222 224 227 229 229 230 234 233 236 237 233 229 234 240 248 261 275 282 295 301 303 306 314 318 320 320 319
219 222 225 228 230 226 228 231 234 232 231 230 229 228 234 234 231 228 227 225 224 226 224 225 228 230 231 231 231 230 231 231 237 237 239 243 246 252 262 277 291 299 305 310 315 318 319 321 322
222 225 228 229 232 233 233 233 236 234 232 233 232 232 233 231 229 228 230 230 227 226 228 228 228 231 233 234 231 228 231 233 234 239 242 241 245 256 261 272 289 296 300 309 315 316 320 322 322
225 227 231 232 231 232 235 237 238 236 237 237 236 235 232 231 230 231 232 231 230 227 228 228 227 231 237 235 231 229 233 234 236 238 241 240 242 251 265 277 288 294 297 303 309 314 321 323 322
228 232 235 237 235 235 235 234 239 238 240 241 239 234 232 231 234 234 234 232 232 233 233 232 230 233 238 233 232 231 232 232 236 240 243 247 246 254 264 278 283 290 297 302 309 317 321 322 322
232 235 237 239 239 238 237 237 240 241 243 241 238 237 234 234 236 235 234 233 234 237 238 236 234 236 236 231 230 228 229 232 235 241 245 248 252 259 264 273 276 286 298 307 311 315 319 323 323
234 235 238 239 240 241 241 241 244 245 244 243 239 235 233 233 235 236 235 235 238 239 238 236 235 234 233 229 227 224 230 235 239 244 247 247 250 259 266 269 270 282 296 309 315 316 316 317 318
236 235 238 240 242 243 243 244 244 244 242 241 239 235 233 233 235 239 238 240 238 238 236 234 234 233 230 229 225 225 229 235 239 243 248 248 248 255 263 268 273 284 296 309 317 318 318 316 319
238 236 238 242 245 249 250 248 248 247 244 240 240 238 235 235 237 237 238 238 238 236 233 233 230 228 228 229 227 229 232 235 240 243 249 255 254 251 258 267 275 284 293 300 308 312 317 322 324
239 241 242 243 244 249 252 251 247 249 246 239 238 239 237 238 237 236 239 238 237 234 231 236 233 232 232 234 233 235 237 234 238 244 249 255 258 262 264 269 275 280 285 291 300 307 314 318 319
238 241 245 247 248 249 250 250 247 249 247 243 241 239 237 239 237 238 239 235 234 236 236 236 236 233 235 238 236 236 239 238 241 245 249 252 256 263 268 269 273 277 287 293 295 300 312 316 315
236 241 244 246 249 249 249 249 243 246 246 246 242 239 240 239 238 237 235 236 237 238 237 236 236 236 237 237 236 239 242 244 244 247 250 255 255 260 265 271 276 276 282 288 296 300 307 312 313
235 239 244 246 248 250 250 250 246 246 245 244 243 240 241 239 236 237 236 234 237 238 238 237 236 236 236 238 239 241 244 244 247 250 253 255 252 255 261 269 279 278 278 284 290 294 302 305 306
235 239 241 244 244 247 249 250 248 246 247 245 242 239 238 237 238 239 238 235 236 237 237 238 235 234 236 240 241 242 245 247 251 251 253 254 251 252 256 267 280 285 282 282 285 289 295 300 301
237 238 241 243 245 248 248 247 246 247 248 244 240 239 239 239 238 239 238 237 236 235 235 237 235 235 237 241 242 244 247 250 252 252 251 255 254 255 260 269 278 283 286 285 284 287 293 297 298
238 239 237 240 244 248 250 247 245 247 248 244 240 238 238 238 236 234 234 237 236 234 234 236 238 240 241 241 243 246 246 248 250 252 251 253 255 257 264 268 273 279 283 286 287 290 290 292 294
234 236 237 240 243 244 248 247 244 246 247 243 240 240 239 239 236 234 233 233 234 235 235 238 239 240 240 241 242 245 246 249 250 252 253 251 253 256 259 266 272 277 281 284 286 291 293 292 293
236 237 238 240 242 244 246 246 246 247 246 244 240 238 238 241 239 238 238 236 236 237 236 238 239 240 242 243 246 251 251 254 255 255 255 255 255 257 261 269 273 277 282 284 286 289 294 296 295
Height
5882 5883 5884 5886 5888 5888 5889 5889 5890 5891 5891 5892 5893 5894 5894 5896 5897 5900 5898 5897 5898 5898 5898 5898 5899 5899 5899 5899 5899 5899 5900 5900 5899 5899 5899 5899 5899 5899 5899 5899 5899 5898 5898 5898 5897 5897 5896 5896 5895
5882 5883 5885 5886 5887 5887 5889 5889 5889 5890 5891 5892 5892 5893 5894 5895 5896 5897 5896 5897 5898 5898 5898 5899 5899 5899 5899 5900 5900 5900 5900 5900 5900 5900 5900 5900 5900 5899 5899 5899 5899 5899 5898 5898 5898 5897 5896 5896 5895
5882 5883 5885 5886 5886 5887 5888 5888 5889 5889 5890 5891 5892 5893 5894 5894 5895 5896 5896 5897 5897 5898 5898 5899 5899 5899 5900 5900 5900 5900 5900 5900 5900 5900 5900 5900 5900 5900 5899 5899 5899 5899 5899 5898 5898 5897 5896 5896 5895
5882 5883 5885 5885 5885 5886 5887 5888 5888 5889 5890 5890 5891 5892 5893 5893 5894 5895 5895 5896 5897 5898 5898 5898 5899 5899 5900 5900 5900 5900 5900 5900 5901 5901 5901 5901 5900 5900 5900 5900 5899 5899 5899 5898 5898 5897 5896 5896 5895
5881 5882 5883 5884 5884 5885 5886 5886 5887 5888 5889 5890 5891 5891 5892 5893 5893 5894 5894 5896 5896 5897 5898 5898 5899 5899 5900 5900 5900 5900 5900 5901 5901 5901 5901 5901 5900 5900 5900 5900 5899 5899 5899 5898 5897 5897 5896 5895 5895
5880 5881 5883 5883 5884 5884 5885 5885 5886 5887 5888 5889 5889 5890 5891 5892 5892 5893 5894 5895 5896 5897 5897 5898 5898 5899 5899 5900 5900 5900 5900 5901 5901 5901 5901 5901 5900 5900 5900 5899 5899 5899 5898 5898 5897 5896 5896 5895 5894
5880 5881 5881 5882 5883 5883 5884 5884 5885 5886 5887 5887 5888 5889 5890 5890 5891 5892 5893 5894 5895 5896 5897 5897 5898 5898 5899 5899 5900 5900 5900 5900 5900 5900 5901 5901 5900 5900 5900 5899 5899 5898 5898 5897 5896 5896 5895 5894 5893
5878 5880 5880 5881 5882 5882 5883 5883 5884 5885 5885 5886 5887 5888 5889 5890 5890 5891 5892 5893 5894 5895 5896 5897 5897 5898 5898 5899 5899 5899 5900 5900 5900 5900 5900 5900 5900 5900 5900 5899 5898 5898 5897 5897 5896 5895 5894 5893 5892
5878 5880 5879 5880 5881 5881 5882 5882 5883 5884 5884 5885 5886 5887 5888 5888 5889 5890 5891 5892 5893 5894 5895 5896 5896 5897 5898 5898 5899 5899 5899 5899 5899 5899 5899 5900 5900 5899 5899 5899 5898 5897 5897 5896 5895 5895 5894 5893 5892
5877 5878 5878 5879 5879 5880 5880 5881 5882 5882 5883 5884 5885 5885 5886 5887 5888 5889 5890 5891 5892 5893 5894 5894 5895 5896 5897 5897 5898 5898 5898 5898 5898 5899 5899 5899 5899 5899 5898 5898 5898 5897 5896 5895 5895 5894 5893 5892 5891
5875 5876 5877 5877 5878 5879 5879 5880 5880 5881 5882 5883 5884 5884 5885 5886 5887 5888 5889 5890 5891 5892 5892 5893 5894 5895 5895 5896 5896 5897 5897 5897 5898 5898 5898 5898 5898 5898 5898 5897 5897 5896 5896 5895 5894 5893 5892 5891 5890
5874 5875 5875 5876 5877 5877 5878 5878 5879 5880 5881 5882 5882 5883 5884 5884 5885 5886 5887 5888 5889 5890 5891 5892 5893 5894 5894 5895 5895 5896 5896 5897 5897 5897 5897 5897 5897 5897 5897 5897 5896 5896 5895 5894 5893 5892 5891 5890 5889
5873 5874 5874 5875 5876 5876 5877 5878 5878 5879 5880 5880 5881 5882 5883 5883 5884 5885 5886 5886 5887 5889 5890 5891 5892 5892 5893 5894 5894 5895 5895 5896 5896 5896 5897 5897 5897 5897 5896 5896 5895 5895 5894 5893 5892 5891 5890 5889 5888
5872 5873 5873 5874 5875 5875 5876 5877 5877 5878 5878 5879 5880 5881 5881 5882 5883 5883 5884 5885 5886 5887 5888 5889 5890 5891 5892 5892 5893 5894 5894 5895 5895 5895 5896 5896 5896 5896 5895 5895 5895 5894 5893 5892 5892 5891 5889 5888 5887
5870 5872 5873 5873 5874 5874 5875 5876 5876 5876 5877 5878 5878 5879 5880 5880 5881 5882 5883 5884 5885 5885 5886 5888 5889 5889 5890 5891 5891 5892 5893 5893 5894 5894 5894 5895 5895 5895 5894 5894 5894 5893 5892 5891 5891 5890 5888 5887 5886
5869 5871 5872 5872 5872 5873 5876 5875 5875 5875 5876 5876 5877 5878 5878 5879 5880 5880 5881 5882 5883 5884 5885 5886 5887 5888 5888 5889 5890 5891 5891 5892 5893 5893 5893 5893 5894 5893 5893 5893 5893 5892 5891 5891 5890 5889 5887 5886 5885
5868 5869 5870 5871 5871 5872 5873 5873 5873 5874 5874 5875 5875 5876 5877 5878 5878 5879 5880 5880 5881 5882 5883 5884 5885 5886 5887 5887 5888 5889 5890 5891 5891 5892 5892 5892 5892 5892 5892 5892 5892 5891 5890 5890 5889 5888 5887 5885 5884
5867 5867 5868 5869 5870 5870 5871 5871 5872 5872 5872 5873 5874 5874 5875 5876 5877 5877 5878 5879 5880 5881 5882 5883 5883 5884 5885 5886 5887 5888 5889 5889 5890 5890 5891 5891 5891 5891 5891 5891 5891 5890 5890 5889 5888 5887 5885 5884 5883
5865 5866 5866 5867 5868 5869 5869 5870 5870 5870 5871 5871 5872 5873 5873 5874 5875 5876 5876 5877 5878 5879 5880 5881 5882 5883 5883 5884 5885 5886 5887 5888 5889 5889 5889 5890 5890 5890 5890 5890 5889 5889 5888 5887 5886 5885 5884 5883 5882
5862 5863 5864 5865 5866 5867 5867 5868 5868 5868 5869 5869 5870 5871 5872 5872 5873 5874 5875 5875 5876 5877 5878 5879 5880 5881 5882 5883 5884 5885 5886 5886 5887 5887 5888 5888 5888 5889 5889 5889 5888 5888 5887 5886 5885 5884 5883 5882 5880
5860 5861 5862 5863 5864 5864 5865 5866 5866 5866 5866 5867 5868 5869 5870 5871 5872 5872 5873 5874 5874 5875 5876 5877 5878 5879 5880 5881 5882 5883 5884 5885 5886 5886 5887 5887 5887 5887 5887 5887 5887 5886 5886 5885 5884 5883 5882 5881 5879
5858 5859 5860 5860 5861 5862 5864 5864 5864 5864 5864 5865 5866 5866 5867 5868 5869 5870 5871 5872 5873 5873 5874 5875 5876 5877 5879 5879 5880 5882 5882 5883 5884 5885 5885 5885 5885 5885 5886 5885 5885 5885 5884 5883 5882 5881 5880 5879 5878
5855 5856 5857 5858 5859 5860 5861 5861 5862 5861 5862 5863 5863 5864 5865 5866 5867 5868 5869 5870 5871 5872 5873 5874 5875 5876 5877 5878 5879 5880 5881 5881 5882 5883 5883 5884 5884 5884 5884 5884 5883 5883 5882 5882 5881 5880 5879 5878 5877
5852 5854 5854 5855 5856 5858 5858 5859 5860 5859 5860 5860 5861 5862 5863 5864 5865 5865 5867 5868 5869 5870 5871 5872 5873 5874 5875 5876 5877 5878 5878 5879 5880 5881 5881 5882 5882 5882 5882 5882 5881 5881 5880 5880 5879 5878 5877 5876 5875
5849 5851 5852 5853 5854 5855 5856 5856 5858 5857 5857 5858 5859 5859 5860 5861 5862 5863 5864 5865 5866 5867 5868 5869 5870 5872 5873 5874 5875 5875 5876 5877 5878 5878 5879 5879 5879 5880 5880 5880 5879 5879 5878 5878 5877 5876 5876 5875 5873
5846 5848 5850 5851 5851 5852 5853 5854 5856 5855 5855 5855 5856 5857 5857 5859 5860 5861 5862 5863 5864 5865 5866 5867 5868 5869 5870 5871 5872 5873 5874 5874 5875 5876 5876 5877 5877 5877 5878 5878 5877 5877 5876 5875 5875 5874 5873 5872 5871
5842 5844 5846 5847 5848 5849 5850 5852 5853 5852 5852 5853 5853 5854 5855 5856 5857 5858 5859 5860 5861 5862 5863 5864 5865 5867 5868 5869 5869 5870 5871 5872 5873 5873 5874 5875 5875 5875 5875 5875 5875 5874 5874 5873 5873 5872 5871 5870 5869
5839 5841 5842 5843 5844 5846 5848 5849 5850 5849 5850 5851 5851 5852 5853 5854 5855 5855 5856 5857 5858 5859 5861 5862 5863 5864 5865 5866 5867 5867 5868 5869 5870 5871 5871 5872 5872 5872 5873 5872 5872 5872 5871 5871 5870 5869 5868 5867 5866
5835 5837 5838 5839 5841 5843 5845 5848 5847 5847 5847 5848 5849 5849 5850 5851 5852 5853 5854 5855 5856 5857 5858 5859 5860 5861 5862 5863 5864 5865 5865 5866 5867 5868 5868 5869 5869 5869 5870 5870 5870 5869 5869 5868 5867 5866 5865 5864 5863
5830 5832 5834 5836 5837 5839 5841 5846 5843 5844 5844 5845 5846 5847 5848 5849 5850 5850 5851 5852 5853 5854 5855 5856 5857 5858 5859 5860 5861 5862 5863 5863 5864 5865 5865 5866 5866 5867 5867 5867 5867 5866 5866 5865 5864 5863 5862 5861 5860